Satellite: RS-30
Catalog number: 32953
Epoch time:      12110.61402917
Element set:     712
Inclination:      082.5038 deg
RA of node:       331.5715 deg
Eccentricity:    0.0019781
Arg of perigee:   075.7725 deg
Mean anomaly:     284.5549 deg
Mean motion:   12.43022442 rev/day
Decay rate:        1.0e-07 rev/day^2
Epoch rev:           17728
Checksum:              278

Satellite: TACSAT-3
Catalog number: 35001
Epoch time:      12110.82554509
Element set:     960
Inclination:      040.4429 deg
RA of node:       064.5758 deg
Eccentricity:    0.0017231
Arg of perigee:   200.0432 deg
Mean anomaly:     160.0195 deg
Mean motion:   16.00603037 rev/day
Decay rate:    5.02840e-03 rev/day^2
Epoch rev:           16523
Checksum:              244

Satellite: PHARMSAT
Catalog number: 35002
Epoch time:      12110.93843261
Element set:     869
Inclination:      040.4619 deg
RA of node:       077.2554 deg
Eccentricity:    0.0001817
Arg of perigee:   174.4666 deg
Mean anomaly:     185.6710 deg
Mean motion:   15.73181182 rev/day
Decay rate:     8.0186e-04 rev/day^2
Epoch rev:           16511
Checksum:              288

Satellite: METEOR-M
Catalog number: 35865
Epoch time:      12110.60130959
Element set:     337
Inclination:      098.6601 deg
RA of node:       166.0087 deg
Eccentricity:    0.0001876
Arg of perigee:   205.8840 deg
Mean anomaly:     154.2259 deg
Mean motion:   14.21859647 rev/day
Decay rate:       -1.1e-07 rev/day^2
Epoch rev:           13427
Checksum:              291

Satellite: RS-38
Catalog number: 35869
Epoch time:      12110.34956326
Element set:     347
Inclination:      098.6558 deg
RA of node:       165.7666 deg
Eccentricity:    0.0003982
Arg of perigee:   215.0228 deg
Mean anomaly:     145.0689 deg
Mean motion:   14.22063972 rev/day
Decay rate:        1.2e-07 rev/day^2
Epoch rev:           13425
Checksum:              317

Satellite: JUGNU
Catalog number: 37839
Epoch time:      12109.81133472
Element set:    0131
Inclination:      019.9636 deg
RA of node:       357.9427 deg
Eccentricity:    0.0018458
Arg of perigee:   289.9100 deg
Mean anomaly:     069.9300 deg
Mean motion:   14.12044095 rev/day
Decay rate:       6.19e-06 rev/day^2
Epoch rev:           02684
Checksum:              305

Satellite: SRMSAT
Catalog number: 37841
Epoch time:      12109.78512292
Element set:    0133
Inclination:      019.9733 deg
RA of node:       001.7972 deg
Eccentricity:    0.0012353
Arg of perigee:   257.3221 deg
Mean anomaly:     102.5816 deg
Mean motion:   14.10130080 rev/day
Decay rate:       2.64e-06 rev/day^2
Epoch rev:           02680
Checksum:              251

Satellite: RAX-2
Catalog number: 37853
Epoch time:      12109.95542874
Element set:    0156
Inclination:      101.7184 deg
RA of node:       123.1968 deg
Eccentricity:    0.0249434
Arg of perigee:   159.7151 deg
Mean anomaly:     201.4175 deg
Mean motion:   14.79382369 rev/day
Decay rate:      3.229e-05 rev/day^2
Epoch rev:           02564
Checksum:              318

Satellite: AUBIESAT
Catalog number: 37854
Epoch time:      12110.60084803
Element set:     156
Inclination:      101.7197 deg
RA of node:       124.3110 deg
Eccentricity:    0.0251021
Arg of perigee:   157.2262 deg
Mean anomaly:     204.0306 deg
Mean motion:   14.79729977 rev/day
Decay rate:      3.612e-05 rev/day^2
Epoch rev:            2572
Checksum:              260

Satellite: HRBE
Catalog number: 37855
Epoch time:      12109.93304715
Element set:    0174
Inclination:      101.7201 deg
RA of node:       123.3096 deg
Eccentricity:    0.0251474
Arg of perigee:   159.2361 deg
Mean anomaly:     201.9280 deg
Mean motion:   14.79603764 rev/day
Decay rate:      3.194e-05 rev/day^2
Epoch rev:           02562
Checksum:              280

Satellite: RS-39
Catalog number: 38051
Epoch time:      12110.56321920
Element set:     261
Inclination:      051.6333 deg
RA of node:       079.0054 deg
Eccentricity:    0.0010382
Arg of perigee:   183.3845 deg
Mean anomaly:     289.7609 deg
Mean motion:   15.23241680 rev/day
Decay rate:      6.415e-05 rev/day^2
Epoch rev:            1303
Checksum:              268

Satellite: E-STAR
Catalog number: 38079
Epoch time:      12110.34839672
Element set:     158
Inclination:      069.4938 deg
RA of node:       089.8112 deg
Eccentricity:    0.0762642
Arg of perigee:   321.8892 deg
Mean anomaly:     033.0634 deg
Mean motion:   14.10892566 rev/day
Decay rate:     5.9769e-04 rev/day^2
Epoch rev:             927
Checksum:              339

Satellite: GOLIAT
Catalog number: 38085
Epoch time:      12110.37263967
Element set:     156
Inclination:      069.4903 deg
RA of node:       089.8552 deg
Eccentricity:    0.0762068
Arg of perigee:   321.9103 deg
Mean anomaly:     033.0547 deg
Mean motion:   14.10132075 rev/day
Decay rate:     5.2650e-04 rev/day^2
Epoch rev:             927
Checksum:              289

/EX


_______________________________________________
Via the Keps mailing list courtesy of AMSAT-NA
http://amsat.org/mailman/listinfo/keps

--- ViaMAIL!/WC v1.60d
 * Origin: Chowdanet (401-724-4410) telnet://chowdanet.com  (1:323/120)